Hourly Data Report for August 26, 2006

TORONTO CITY
ONTARIO

43°40'00.000" N
79°24'00.000" W
112.50 m
6158355
71508
XTO

Download Data

Hourly Data (August 2006)
Hourly Data Report for August 26, 2006
TIME
LST
Temp Definition
°C
Dew Point Definition
°C
Rel Hum Definition
%
Precip. Amount Definition
mm

Wind Dir Definition
10's deg

Wind Spd Definition
km/h
Visibility Definition
km
Stn Press Definition
kPa
Hmdx Definition


Wind Chill Definition


Weather Definition


00:00 16.0 15.1 94   LegendMM LegendMM   100.47     LegendNANA
01:00 16.1 15.3 95   LegendMM LegendMM   100.44     LegendNANA
02:00 17.0 15.3 90   LegendMM LegendMM   100.41     LegendNANA
03:00 16.5 14.8 90   LegendMM LegendMM   100.44     LegendNANA
04:00 15.8 13.0 83   LegendMM LegendMM   100.46     LegendNANA
05:00 15.2 11.6 79   LegendMM LegendMM   100.44     LegendNANA
06:00 14.9 10.8 76   LegendMM LegendMM   100.53     LegendNANA
07:00 15.3 10.8 75   LegendMM LegendMM   100.55     LegendNANA
08:00 16.9 12.9 77   LegendMM LegendMM   100.54     LegendNANA
09:00 17.6 13.7 78   LegendMM LegendMM   100.58     LegendNANA
10:00 18.3 14.9 81   LegendMM LegendMM   100.57     LegendNANA
11:00 18.9 16.1 84   LegendMM LegendMM   100.60     LegendNANA
12:00 19.5 16.8 84   LegendMM LegendMM   100.58     LegendNANA
13:00 20.0 17.5 86   LegendMM LegendMM   100.51 26   LegendNANA
14:00 20.5 18.1 86   LegendMM LegendMM   100.47 27   LegendNANA
15:00 20.3 18.1 87   LegendMM LegendMM   100.40 26   LegendNANA
16:00 20.2 18.2 88   LegendMM LegendMM   100.34 26   LegendNANA
17:00 20.3 18.8 91   LegendMM LegendMM   100.35 27   LegendNANA
18:00 20.5 19.3 93   LegendMM LegendMM   100.33 28   LegendNANA
19:00 20.6 19.5 93   LegendMM LegendMM   100.32 28   LegendNANA
20:00 20.7 19.7 94   LegendMM LegendMM   100.34 28   LegendNANA
21:00 21.1 20.2 95   LegendMM LegendMM   100.31 29   LegendNANA
22:00 21.2 20.1 93   LegendMM LegendMM   100.24 29   LegendNANA
23:00 20.8 20.0 95   LegendMM LegendMM   100.14 28   LegendNANA

Notes on Data Quality.

Legend

  • E = Estimated
  • M = Missing
  • NA = Not Available*
  • [empty] = Indicates an unobserved value
Date modified: